MST,Max TemperatureF,Mean TemperatureF,Min TemperatureF,Max Dew PointF,MeanDew PointF,Min DewpointF,Max Humidity, Mean Humidity, Min Humidity, Max Sea Level PressureIn, Mean Sea Level PressureIn, Min Sea Level PressureIn, Max VisibilityMiles, Mean VisibilityMiles, Min VisibilityMiles, Max Wind SpeedMPH, Mean Wind SpeedMPH, Max Gust SpeedMPH,PrecipitationIn, CloudCover, Events, WindDirDegrees
2013-12-1,60,41,22,23,20,16,81,52,23,30.18,30.03,29.82,10,10,10,14,8,18,0.00,0,,263
2013-12-2,68,51,33,27,22,19,56,36,16,29.81,29.67,29.52,10,10,10,20,9,24,0.00,1,,259
2013-12-3,61,40,19,30,22,14,85,57,28,29.72,29.60,29.46,10,10,10,29,14,35,0.00,4,,41
2013-12-4,19,11,2,15,5,-5,92,71,49,30.31,29.94,29.72,10,8,2,31,21,37,0.01,7,Snow,341
2013-12-5,12,5,-3,-1,-5,-9,75,66,57,30.42,30.36,30.31,10,10,10,16,9,19,0.00,4,,19
2013-12-6,14,6,-2,-4,-6,-9,72,59,46,30.63,30.52,30.40,10,10,10,16,7,20,0.00,6,,129
2013-12-7,8,6,3,3,-3,-8,88,72,55,30.57,30.32,30.00,10,7,2,25,16,31,T,8,Snow,147
2013-12-8,14,4,-6,7,3,-9,91,82,72,30.31,29.99,29.81,10,4,1,17,8,21,0.01,7,Snow,13
2013-12-9,22,9,-5,7,1,-7,79,65,51,30.42,30.33,30.25,10,10,10,21,11,26,0.00,2,,253
2013-12-10,45,24,3,17,8,-2,77,47,16,30.34,30.22,30.01,10,10,10,26,12,32,0.00,0,,269
2013-12-11,43,26,9,16,12,3,88,59,30,30.61,30.46,30.34,10,10,10,24,11,32,0.00,2,,249
2013-12-12,56,34,11,16,11,8,73,45,16,30.39,30.21,29.93,10,10,10,18,9,20,0.00,0,,213
2013-12-13,52,35,18,20,15,9,81,51,21,30.12,29.93,29.81,10,10,10,22,12,27,0.00,0,,329
2013-12-14,48,34,20,26,19,12,92,62,31,30.30,30.24,30.13,10,10,10,24,13,32,0.00,2,,305
2013-12-15,60,43,25,19,16,14,58,39,19,30.23,30.14,30.06,10,10,10,28,13,33,0.00,0,,272
2013-12-16,64,46,28,20,15,12,58,36,14,30.22,30.15,30.06,10,10,10,23,12,28,0.00,0,,288
2013-12-17,56,40,23,20,16,13,60,41,22,30.40,30.25,30.03,10,10,10,24,12,32,0.00,0,,243
2013-12-18,73,52,31,18,14,9,44,26,8,29.99,29.80,29.67,10,10,10,21,8,26,0.00,0,,257
2013-12-19,45,30,15,26,20,10,100,70,40,29.95,29.76,29.59,10,9,2,28,13,34,T,4,Snow,31
2013-12-20,27,19,10,9,5,3,73,60,46,30.04,29.94,29.83,10,10,10,25,9,32,0.00,2,,334
2013-12-21,36,23,9,19,13,5,80,62,44,29.94,29.78,29.67,10,10,10,16,8,20,0.00,3,,346
2013-12-22,39,25,11,17,11,6,92,59,25,30.27,30.15,30.00,10,10,10,18,10,22,T,3,,290
2013-12-23,31,23,14,17,14,12,96,75,53,30.53,30.39,30.22,10,10,7,23,13,30,T,5,Snow,166
2013-12-24,64,41,17,32,23,12,92,57,21,30.33,30.17,29.96,10,10,10,35,13,44,T,4,,300
2013-12-25,44,32,19,22,15,9,96,64,31,30.47,30.39,30.27,10,10,10,24,13,28,0.00,0,,276
2013-12-26,56,40,24,18,14,10,60,40,19,30.36,30.28,30.21,10,10,10,26,13,30,0.00,0,,283
2013-12-27,63,44,25,16,12,10,58,36,13,30.33,30.21,30.03,10,10,10,20,13,23,0.00,0,,234
2013-12-28,64,41,17,24,15,7,69,43,17,30.21,29.97,29.76,10,10,9,33,16,42,0.00,2,,316
2013-12-29,30,21,11,15,8,3,77,58,39,30.45,30.29,30.09,10,10,4,32,15,39,T,2,Snow,293
2013-12-30,49,35,20,20,15,12,74,50,26,30.31,30.20,30.06,10,10,10,36,15,42,0.00,1,,289
2013-12-31,62,45,28,22,18,15,58,39,19,30.16,30.02,29.88,10,10,10,24,12,33,0.00,0,,242